Content
SEND FEEDBACK

Daily
Averages
Monthly
Summary
France

PARIS, FRANCE


Home > Europe > France
Elevation: 96 meters     Latitude: 48 44N     Longitude: 002 24E

WEATHER
 
SELECT A DAY
Number of Records: 320,045;   Date Range: 7/1/96 - 8/10/14
 
SHARE

PRINT THIS DATA

[ ← Previous Day ]
WEATHER ALMANAC - 23 MARCH, 2013
[ Next Day → ]
[ °F ]   °C
Weather ElementAverageHighLow
Temperature8.7 °C12 °C (3:00 pm)6 °C (10:30 pm)
Dewpoint3.2 °C5 °C (3:30 pm)2 °C (1:00 am)
Humidity67.9 %87 % (10:30 pm)50 % (1:00 pm)
Barometer1005.1 hPa1006.4 hPa (1:00 pm)1003 hPa (3:00 am)
Wind Speed9.5 km/h18.5 km/h (9:00 pm)
Weather ElementAverage
Visibility9.7 km
Wind DirectionENE (65.3 °)

Weather ElementTotal
Precipitation---
Heating Degree Days9.3 (Base 18.3)
Averaged from 51 records on 23 March, 2013
WEATHER CONDITIONS BREAKOUT
WIND DIRECTION BREAKOUT
WEATHER BY HOUR - 23 MARCH, 2013
[ °F ]   °C
Local TimeTemperatureDewpointHumidityBarometerVisibilityWind DirectionWind SpeedGust SpeedPrecipitationEventsConditions
12:30 AM9 °C3 °C66 %1004.1 hPaEast (80°)11.1 km/hClear
1:00 AM8.9 °C2.2 °C53 %1004.4 hPa14.5 kmEast (80°)11.1 km/hMostly Cloudy
1:00 AM9 °C2 °C62 %1004.1 hPa10 kmEast (80°)11.1 km/hMostly Cloudy
1:30 AM9 °C2 °C62 %1004.1 hPa10 kmEast (80°)7.4 km/hMostly Cloudy
2:00 AM8 °C2 °C66 %1004.1 hPa10 kmEast (80°)9.3 km/hMostly Cloudy
2:30 AM8 °C2 °C66 %1004.1 hPaEast (80°)11.1 km/hClear
3:00 AM8 °C2 °C66 %1003 hPaEast (80°)11.1 km/hClear
3:30 AM8 °C2 °C66 %1004.1 hPaEast (80°)7.4 km/hClear
4:00 AM8 °C2 °C66 %1004.1 hPaEast (80°)11.1 km/hClear
4:30 AM8 °C2 °C66 %1004.1 hPaEast (80°)9.3 km/hClear
5:00 AM7 °C2 °C71 %1004.1 hPaEast (90°)7.4 km/hClear
5:30 AM7 °C2 °C71 %1004.1 hPaEast (90°)7.4 km/hClear
6:00 AM7 °C3 °C76 %1004.1 hPa10 kmNE (50°)9.3 km/hRainLight Rain
6:30 AM7 °C2 °C71 %1004.1 hPaENE (60°)9.3 km/hClear
7:00 AM6.7 °C2.2 °C64 %1005.4 hPa8 kmENE (70°)5.6 km/hPartly Cloudy
7:00 AM7 °C2 °C71 %1005.1 hPa8 kmENE (70°)5.6 km/h
7:30 AM7 °C2 °C71 %1005.1 hPa8 kmENE (70°)7.4 km/hMostly Cloudy
8:00 AM7 °C2 °C71 %1005.1 hPa9 kmEast (80°)9.3 km/h
8:30 AM7 °C2 °C71 %1005.1 hPaEast (90°)7.4 km/hClear
9:00 AM7 °C2 °C71 %1005.1 hPaEast (90°)5.6 km/hClear
9:30 AM7 °C2 °C71 %1005.1 hPaEast (90°)11.1 km/hClear
10:00 AM8 °C3 °C71 %1005.1 hPaEast (100°)9.3 km/hClear
10:30 AM8 °C3 °C71 %1005.1 hPaEast (90°)7.4 km/hClear
11:00 AM9 °C3 °C66 %1005.1 hPaVariable5.6 km/hClear
11:30 AM10 °C4 °C66 %1006.1 hPaCalmClear
12:00 PM10 °C3 °C62 %1006.1 hPa10 kmVariable5.6 km/hMostly Cloudy
12:30 PM11 °C4 °C62 %1006.1 hPa10 kmVariable3.7 km/hMostly Cloudy
1:00 PM11.1 °C3.9 °C50 %1006.4 hPa11.3 kmEast (90°)3.7 km/hMostly Cloudy
1:00 PM11 °C4 °C62 %1006.1 hPa10 kmVariable3.7 km/hMostly Cloudy
1:30 PM11 °C4 °C62 %1006.1 hPa10 kmVariable3.7 km/hMostly Cloudy
2:17 PM11 °C4 °C62 %1005.1 hPa10 kmEast (90°)5.6 km/hMostly Cloudy
2:30 PM11 °C4 °C62 %1005.1 hPa10 kmVariable5.6 km/hMostly Cloudy
3:00 PM12 °C4 °C58 %1005.1 hPa9 kmVariable5.6 km/hMostly Cloudy
3:30 PM12 °C5 °C62 %1005.1 hPa9 kmVariable1.9 km/hMostly Cloudy
4:00 PM12 °C5 °C62 %1005.1 hPa10 kmENE (70°)7.4 km/hMostly Cloudy
4:30 PM12 °C5 °C62 %1005.1 hPa10 kmEast (100°)7.4 km/hMostly Cloudy
5:00 PM11 °C5 °C67 %1005.1 hPa10 kmENE (70°)9.3 km/hMostly Cloudy
5:30 PM11 °C5 °C67 %1005.1 hPa10 kmEast (90°)13 km/hMostly Cloudy
6:00 PM10 °C5 °C71 %1005.1 hPa10 kmENE (70°)14.8 km/hMostly Cloudy
6:30 PM10 °C4 °C66 %1005.1 hPaEast (80°)14.8 km/hClear
7:00 PM9.4 °C3.9 °C58 %1006.4 hPa11.3 kmEast (80°)14.8 km/hMostly Cloudy
7:00 PM9 °C4 °C71 %1006.1 hPaEast (80°)14.8 km/hClear
7:30 PM9 °C4 °C71 %1006.1 hPaENE (70°)16.7 km/hClear
8:00 PM9 °C4 °C71 %1006.1 hPaENE (70°)13 km/hClear
8:30 PM8 °C4 °C76 %1006.1 hPa9 kmEast (80°)16.7 km/h
9:00 PM8 °C4 °C76 %1006.1 hPa9 kmEast (80°)18.5 km/h
9:30 PM7 °C4 °C81 %1006.1 hPa9 kmENE (70°)16.7 km/h
10:00 PM7 °C4 °C81 %1006.1 hPa9 kmEast (80°)13 km/hMostly Cloudy
10:30 PM6 °C4 °C87 %1006.1 hPa9 kmEast (80°)14.8 km/h
11:00 PM6 °C3 °C81 %1006.1 hPa9 kmENE (70°)18.5 km/h
11:30 PM6 °C3 °C81 %1006.1 hPa8 kmENE (70°)13 km/hMostly Cloudy
Hourly data recorded from LFPO, located 0 kilometers away from Paris, France







STORIES FROM OUR PARTNERS